TimeMDT,TemperatureF,Dew PointF,Humidity,Sea Level PressureIn,VisibilityMPH,Wind Direction,Wind SpeedMPH,Gust SpeedMPH,PrecipitationIn,Events,Conditions,WindDirDegrees,DateUTC
12:15 AM,59.4,18.5,20,30.15,10.0,WSW,5.8,-,N/A,,Clear,240,2012-10-06 06:15:00
12:35 AM,59.0,20.8,23,30.15,10.0,South,10.4,-,N/A,,Clear,190,2012-10-06 06:35:00
12:55 AM,56.7,29.7,36,30.16,10.0,South,10.4,-,N/A,,Clear,180,2012-10-06 06:55:00
1:15 AM,55.4,31.8,41,30.17,10.0,South,13.8,19.6,N/A,,Clear,170,2012-10-06 07:15:00
1:35 AM,54.5,32.9,44,30.17,10.0,South,11.5,17.3,N/A,,Clear,190,2012-10-06 07:35:00
1:55 AM,53.6,34.9,49,30.17,10.0,SSW,18.4,23.0,N/A,,Clear,200,2012-10-06 07:55:00
2:15 AM,51.8,35.8,54,30.18,10.0,South,15.0,19.6,N/A,,Scattered Clouds,190,2012-10-06 08:15:00
2:35 AM,50.9,36.5,58,30.17,10.0,South,13.8,21.9,N/A,,Mostly Cloudy,180,2012-10-06 08:35:00
2:55 AM,49.3,37.4,64,30.19,10.0,South,15.0,24.2,N/A,,Overcast,190,2012-10-06 08:55:00
3:35 AM,47.5,38.3,70,30.18,10.0,South,13.8,19.6,N/A,,Scattered Clouds,170,2012-10-06 09:35:00
3:55 AM,46.6,38.3,73,30.17,10.0,SSE,9.2,-,N/A,,Clear,150,2012-10-06 09:55:00
4:15 AM,45.9,37.9,74,30.18,10.0,SSE,9.2,-,N/A,,Clear,160,2012-10-06 10:15:00
4:35 AM,45.3,37.8,75,30.17,10.0,South,9.2,-,N/A,,Clear,170,2012-10-06 10:35:00
4:55 AM,44.8,37.6,76,30.17,10.0,SSE,11.5,16.1,N/A,,Clear,160,2012-10-06 10:55:00
5:15 AM,44.2,37.4,77,30.17,10.0,South,11.5,17.3,N/A,,Clear,170,2012-10-06 11:15:00
5:35 AM,43.9,37.4,78,30.17,10.0,South,12.7,-,N/A,,Clear,170,2012-10-06 11:35:00
5:55 AM,43.7,37.4,78,30.17,10.0,South,11.5,-,N/A,,Clear,180,2012-10-06 11:55:00
6:15 AM,43.2,37.6,81,30.17,10.0,South,8.1,-,N/A,,Clear,180,2012-10-06 12:15:00
6:35 AM,42.8,37.6,82,30.17,10.0,South,12.7,16.1,N/A,,Clear,180,2012-10-06 12:35:00
6:55 AM,42.8,37.6,82,30.16,10.0,South,12.7,-,N/A,,Clear,170,2012-10-06 12:55:00
7:15 AM,42.3,37.8,84,30.17,10.0,South,9.2,-,N/A,,Clear,190,2012-10-06 13:15:00
7:35 AM,42.3,37.8,84,30.17,10.0,SSW,10.4,-,N/A,,Clear,200,2012-10-06 13:35:00
7:55 AM,42.3,37.8,84,30.17,10.0,SSW,11.5,-,N/A,,Clear,200,2012-10-06 13:55:00
8:15 AM,42.4,37.8,83,30.17,10.0,SSW,11.5,-,N/A,,Clear,200,2012-10-06 14:15:00
8:35 AM,43.3,37.9,81,30.16,10.0,SSW,11.5,-,N/A,,Clear,200,2012-10-06 14:35:00
8:55 AM,44.2,37.9,79,30.17,10.0,SSW,10.4,-,N/A,,Clear,200,2012-10-06 14:55:00
9:15 AM,45.5,38.3,76,30.16,10.0,South,11.5,-,N/A,,Clear,190,2012-10-06 15:15:00
9:35 AM,48.6,37.9,67,30.16,10.0,South,13.8,-,N/A,,Clear,190,2012-10-06 15:35:00
9:55 AM,50.0,37.6,62,30.15,10.0,South,9.2,-,N/A,,Clear,180,2012-10-06 15:55:00
10:15 AM,52.0,37.4,58,30.15,10.0,South,10.4,-,N/A,,Clear,170,2012-10-06 16:15:00
10:35 AM,52.7,37.4,56,30.15,10.0,SSE,15.0,-,N/A,,Clear,160,2012-10-06 16:35:00
10:55 AM,54.0,37.2,53,30.15,10.0,SSE,9.2,18.4,N/A,,Clear,160,2012-10-06 16:55:00
11:15 AM,55.4,36.3,49,30.14,10.0,South,15.0,20.7,N/A,,Clear,180,2012-10-06 17:15:00
11:35 AM,56.8,36.0,46,30.13,10.0,SSE,10.4,21.9,N/A,,Clear,160,2012-10-06 17:35:00
11:55 AM,57.7,36.3,45,30.14,10.0,SSE,8.1,21.9,N/A,,Clear,160,2012-10-06 17:55:00
12:15 PM,60.1,35.1,39,30.13,10.0,SSE,9.2,17.3,N/A,,Clear,150,2012-10-06 18:15:00
12:35 PM,61.5,34.5,36,30.11,10.0,South,9.2,18.4,N/A,,Clear,170,2012-10-06 18:35:00
12:55 PM,64.0,32.5,31,30.11,10.0,NNW,4.6,19.6,N/A,,Clear,330,2012-10-06 18:55:00
1:15 PM,68.0,19.8,16,30.09,10.0,West,13.8,20.7,N/A,,Clear,280,2012-10-06 19:15:00
1:35 PM,68.5,17.6,14,30.08,10.0,WNW,10.4,24.2,N/A,,Clear,290,2012-10-06 19:35:00
1:55 PM,68.9,15.4,13,30.08,10.0,West,21.9,31.1,N/A,,Clear,270,2012-10-06 19:55:00
2:15 PM,69.1,14.9,12,30.07,10.0,WSW,18.4,33.4,N/A,,Clear,240,2012-10-06 20:15:00
2:35 PM,69.8,14.4,12,30.07,10.0,West,21.9,35.7,N/A,,Clear,260,2012-10-06 20:35:00
2:55 PM,69.4,15.1,12,30.06,10.0,WSW,13.8,25.3,N/A,,Clear,250,2012-10-06 20:55:00
3:15 PM,68.9,13.1,12,30.06,10.0,West,17.3,26.5,N/A,,Clear,280,2012-10-06 21:15:00
3:35 PM,68.9,13.1,12,30.06,10.0,West,17.3,28.8,N/A,,Clear,280,2012-10-06 21:35:00
3:55 PM,68.5,12.0,11,30.06,10.0,West,19.6,27.6,N/A,,Clear,260,2012-10-06 21:55:00
4:15 PM,68.7,11.5,11,30.06,10.0,WSW,17.3,29.9,N/A,,Clear,250,2012-10-06 22:15:00
4:35 PM,69.1,13.1,12,30.05,10.0,West,18.4,26.5,N/A,,Clear,260,2012-10-06 22:35:00
5:15 PM,68.4,11.7,11,30.05,10.0,WSW,18.4,29.9,N/A,,Clear,240,2012-10-06 23:15:00
5:35 PM,67.6,12.0,12,30.05,10.0,WSW,18.4,26.5,N/A,,Clear,240,2012-10-06 23:35:00
5:55 PM,66.9,12.2,12,30.05,10.0,West,16.1,23.0,N/A,,Clear,260,2012-10-06 23:55:00
6:15 PM,66.0,12.9,13,30.06,10.0,WSW,15.0,23.0,N/A,,Clear,250,2012-10-07 00:15:00
6:35 PM,65.3,13.3,13,30.06,10.0,WSW,10.4,20.7,N/A,,Clear,250,2012-10-07 00:35:00
6:55 PM,64.8,14.5,14,30.08,10.0,SW,9.2,-,N/A,,Clear,220,2012-10-07 00:55:00
7:15 PM,53.8,32.5,45,30.10,10.0,South,12.7,23.0,N/A,,Clear,170,2012-10-07 01:15:00
7:35 PM,50.4,34.9,55,30.11,10.0,South,19.6,26.5,N/A,,Clear,170,2012-10-07 01:35:00
7:55 PM,48.4,35.6,61,30.13,10.0,South,18.4,28.8,N/A,,Clear,180,2012-10-07 01:55:00
8:15 PM,46.9,35.8,65,30.14,10.0,South,13.8,24.2,N/A,,Clear,170,2012-10-07 02:15:00
8:35 PM,44.8,36.1,72,30.15,10.0,South,15.0,24.2,N/A,,Clear,180,2012-10-07 02:35:00
8:55 PM,43.2,35.8,75,30.15,10.0,South,15.0,26.5,N/A,,Clear,180,2012-10-07 02:55:00
9:15 PM,41.9,35.8,79,30.17,10.0,South,18.4,27.6,N/A,,Clear,180,2012-10-07 03:15:00
9:35 PM,41.0,35.6,81,30.18,10.0,South,16.1,26.5,N/A,,Scattered Clouds,180,2012-10-07 03:35:00
9:55 PM,40.1,34.9,82,30.18,10.0,South,16.1,25.3,N/A,,Scattered Clouds,180,2012-10-07 03:55:00
10:15 PM,40.1,34.9,82,30.18,10.0,South,19.6,25.3,N/A,,Clear,190,2012-10-07 04:15:00
10:35 PM,39.4,34.0,81,30.19,10.0,South,16.1,23.0,N/A,,Clear,190,2012-10-07 04:35:00
10:55 PM,39.2,33.8,81,30.19,10.0,South,15.0,25.3,N/A,,Scattered Clouds,190,2012-10-07 04:55:00
11:15 PM,39.2,33.8,81,30.19,10.0,South,15.0,26.5,N/A,,Mostly Cloudy,180,2012-10-07 05:15:00
11:35 PM,39.2,33.8,81,30.19,10.0,South,18.4,23.0,N/A,,Scattered Clouds,190,2012-10-07 05:35:00
11:55 PM,39.2,33.8,81,30.19,10.0,South,12.7,24.2,N/A,,Clear,190,2012-10-07 05:55:00